This is the latest recevied weather packets stored in our database for station/object OE3APM-13. If no packets are shown the sender has not sent any weather packets the latest 1 day(s).
| Time | Temp. | Humidity | Pressure | Rain* | Wind** | Luminosity | Snow |
|---|---|---|---|---|---|---|---|
| 1778021657 | 15° C | 74% | 1006.4 hPa | 0 mm | 2.68 m/s, 327° | 0 W/m² | - |
| 1778021355 | 15° C | 73% | 1006.4 hPa | 0 mm | 3.13 m/s, 299° | 0 W/m² | - |
| 1778021055 | 15.56° C | 73% | 1006.4 hPa | 0 mm | 3.13 m/s, 303° | 0 W/m² | - |
| 1778020755 | 15.56° C | 72% | 1006.4 hPa | 0 mm | 3.13 m/s, 319° | 0 W/m² | - |
| 1778020455 | 15.56° C | 71% | 1006.5 hPa | 0 mm | 3.13 m/s, 299° | 0 W/m² | - |
| 1778020155 | 16.11° C | 70% | 1006.6 hPa | 0 mm | 4.02 m/s, 276° | 0 W/m² | - |
| 1778019855 | 16.11° C | 68% | 1006.7 hPa | 0 mm | 4.02 m/s, 287° | 0 W/m² | - |
| 1778019555 | 16.11° C | 66% | 1006.5 hPa | 0 mm | 4.02 m/s, 291° | 0 W/m² | - |
| 1778019256 | 16.67° C | 65% | 1006.4 hPa | 0 mm | 3.58 m/s, 288° | 0 W/m² | - |
| 1778018957 | 16.67° C | 64% | 1006.1 hPa | 0 mm | 3.13 m/s, 263° | 0 W/m² | - |
| 1778018655 | 16.67° C | 63% | 1005.9 hPa | 0 mm | 3.58 m/s, 306° | 0 W/m² | - |
| 1778018356 | 16.67° C | 63% | 1006 hPa | 0 mm | 3.13 m/s, 329° | 0 W/m² | - |
| 1778018056 | 16.67° C | 63% | 1006.1 hPa | 0 mm | 2.68 m/s, 278° | 0 W/m² | - |
| 1778017754 | 16.67° C | 62% | 1006.1 hPa | 0 mm | 2.68 m/s, 304° | 0 W/m² | - |
| 1778017454 | 16.67° C | 62% | 1006.2 hPa | 0 mm | 3.13 m/s, 294° | 0 W/m² | - |
| 1778017145 | 17.22° C | 61% | 1006.2 hPa | 0 mm | 3.13 m/s, 306° | 0 W/m² | - |
| 1778016844 | 17.22° C | 61% | 1006.2 hPa | 0 mm | 3.13 m/s, 291° | 0 W/m² | - |
| 1778016544 | 17.22° C | 60% | 1006.1 hPa | 0 mm | 3.58 m/s, 280° | 0 W/m² | - |
| 1778016248 | 17.22° C | 60% | 1006.1 hPa | 0 mm | 4.02 m/s, 292° | 0 W/m² | - |
| 1778015945 | 17.78° C | 60% | 1006.1 hPa | 0 mm | 4.02 m/s, 246° | 0 W/m² | - |
| 1778015644 | 17.78° C | 60% | 1006.2 hPa | 0 mm | 4.02 m/s, 265° | 0 W/m² | - |
| 1778015343 | 17.78° C | 59% | 1006 hPa | 0 mm | 3.58 m/s, 264° | 0 W/m² | - |
| 1778015041 | 17.78° C | 58% | 1006 hPa | 0 mm | 3.58 m/s, 222° | 0 W/m² | - |
| 1778014741 | 17.78° C | 58% | 1005.8 hPa | 0 mm | 4.02 m/s, 254° | 0 W/m² | - |
| 1778014442 | 17.78° C | 58% | 1005.6 hPa | 0 mm | 4.02 m/s, 223° | 0 W/m² | - |
* Rain latest hour (hover to see other rain measurements)
** Current wind speed in m/s (hover to see current wind gust speed)